Regional Weather Roundup
Issued by NWS Sterling, VA

Home | Current Version | Previous Version | Graphics & Text | Print | Product List | Glossary On
Versions: 1 2 3 4 5 6 7 8 9 10 11 12 13 14 15 16 17 18 19 20 21 22 23 24 25 26 27 28 29 30 31 32 33 34 35 36 37 38 39 40 41 42 43 44 45 46 47 48 49 50
000
ASUS41 KLWX 260310
RWRLWX

REGIONAL WEATHER ROUNDUP
NATIONAL WEATHER SERVICE BALTIMORE MD/WASHINGTON DC
1100 PM EDT WED MAR 25 2015

Note: "FAIR" indicates few or no clouds below 12,000 feet
with no significant weather and/or obstructions to visibility.
 TC=TEMPERATURE CELSIUS

 * =Non NWS site. Station does not report precipitation (e.g. rain,
    snow, etc.), thunder, or fog.

DCZ001-MDZ009-015-VAZ040>042-051-053>054-260400-
WASHINGTON METRO

CITY           SKY/WX    TMP DP  RH WIND       PRES   REMARKS
WASHINGTON NAT CLOUDY    50  39  66 S5        30.17F
DULLES         FAIR      48  36  63 S8        30.14F
ANDREWS AFB    CLOUDY    43  42  95 S5        30.16F
FT BELVOIR     CLOUDY    46  40  77 SE1       30.17F
QUANTICO       CLOUDY    48  41  76 CALM      30.18F
COLLEGE PARK*  MOCLDY    46  37  71 CALM      30.16F
LEESBURG*      FAIR      46  39  76 S9        30.14F
MANASSAS*      MOCLDY    48  39  71 SE7       30.15F
GAITHERSBURG*  FAIR      46  34  61 SE8       30.18F

$$

MDZ006>007-011-014-260400-
BALTIMORE METRO

CITY           SKY/WX    TMP DP  RH WIND       PRES   REMARKS
BWI AIRPORT    CLOUDY    43  36  76 E6        30.16F
MD SCIENCE CTR   N/A     45  36  70 MISG      30.17F
MARTIN STATE   CLOUDY    45  37  76 CALM      30.18F
ANNAPOLIS      MOCLDY    41  38  89 CALM      30.17F

$$

MDZ012-015-019>023-260400-
MARYLAND EASTERN SHORE

CITY           SKY/WX    TMP DP  RH WIND       PRES   REMARKS
OCEAN CITY     CLOUDY    52  51  97 SW9       30.18F FOG
SALISBURY      MOCLDY   N/A N/A N/A CALM      30.17F
BAY BRIDGE AP*   N/A     39  37  93 CALM      30.18F
CAMBRIDGE*     FAIR      45  41  87 CALM      30.17S
EASTON*        CLOUDY    46  46 100 CALM      30.21S FOG

$$

MDZ017>025-260400-
SOUTHERN MARYLAND

CITY           SKY/WX    TMP DP  RH WIND       PRES   REMARKS
PATUXENT RIVER FAIR      44  39  82 CALM      30.17F
ST INIGOES     FAIR      47  41  80 W6        30.17S
LEONARDTOWN*   MOCLDY    45  41  87 CALM      30.19S

$$

MDZ003>005-260400-
NORTH CENTRAL MARYLAND

CITY           SKY/WX    TMP DP  RH WIND       PRES   REMARKS
FREDERICK*     CLOUDY    48  34  57 S3        30.17S
HAGERSTOWN APT FAIR      47  37  68 S10       30.10F
WESTMINSTER*   CLOUDY    46  37  71 S7        30.13F

$$

MDZ501>502-260400-
WESTERN MARYLAND

CITY           SKY/WX    TMP DP  RH WIND       PRES   REMARKS
OAKLAND*       FAIR      55  46  71 NW5       30.07S
CUMBERLAND*    FAIR      50  37  62 N3        30.12S

$$

VAZ025>031-260400-
SHENANDOAH VALLEY

CITY           SKY/WX    TMP DP  RH WIND       PRES   REMARKS
WINCHESTER*    FAIR      43  36  75 SE5       30.10S
FRONT ROYAL*   FAIR      52  45  76 SW10G17   30.09F
LURAY*         FAIR      52  46  82 S8        30.12F
NEW MARKET*    FAIR      47  44  87 SW7       30.12F
STAUNTON*      CLOUDY    50  43  78 CALM      30.16F
WAYNESBORO*    CLOUDY    44  43  93 N3        30.14F

$$

WVZ021-048>050-054>055-260400-
EASTERN WEST VIRGINIA PANHANDLE

CITY           SKY/WX    TMP DP  RH WIND       PRES   REMARKS
MARTINSBURG    FAIR      42  35  76 CALM      30.10F
PETERSBURG*    FAIR      56  41  57 S12       30.07F

$$

VAZ036>039-050-260400-
CENTRAL FOOTHILLS

CITY           SKY/WX    TMP DP  RH WIND       PRES   REMARKS
CHARLOTTESVILL MOCLDY    46  38  73 CALM      30.15F
CULPEPER*      MOCLDY    48  37  66 S5        30.16F
ORANGE*        CLOUDY    46  37  71 CALM      30.17F
GORDONSVILLE*  CLOUDY    46  38  73 CALM      30.15F
WARRENTON*     MOCLDY    48  41  77 S5        30.14F

$$

VAZ055>057-260400-
NORTH AND CENTRAL PIEDMONT

CITY           SKY/WX    TMP DP  RH WIND       PRES   REMARKS
FREDERICKSBRG* CLOUDY    47  38  70 CALM      30.17F
STAFFORD*      CLOUDY    48  36  64 CALM      30.20F

$$

NCZ024-NYZ072-PAZ021-071-VAZ022-071-260400-
OTHER REGIONAL OBSERVATIONS

CITY           SKY/WX    TMP DP  RH WIND       PRES   REMARKS
NEW YORK CITY  CLOUDY    43  39  86 CALM      30.21F FOG
PHILADELPHIA   CLOUDY    43  39  86 E5        30.18F
PITTSBURGH     MOCLDY    52  44  74 CALM      30.02S
ROANOKE        CLOUDY    49  41  74 SE3       30.18F
RICHMOND       CLOUDY    54  38  54 CALM      30.18F
RALEIGH        CLOUDY    61  50  67 E3        30.17F

$$

ANZ530>537-260400-
MARINE OBSERVATIONS

STATION/POSITION TIME  TEMP    WIND        PRES
                       AIR SEA DIR/SP/G
                 (UTC) (F)     (DEG/KT/KT) (MB)
THOMAS PT LIGHT  0300                        N/A
BALT KEY BRIDGE  0200   43      60/  3/  3 1022.3R
COVE POINT       0200   42     340/  6/  7 1021.7F
LEWISETTA        0200   48 46              1021.5S
SOLOMONS ISLAND  0200      42                N/A
PINEY POINT      0200          310/  5/  6   N/A

$$



USA.gov is the U.S. government's official web portal to all federal, state and local government web resources and services.